TimeEST,TemperatureF,Dew PointF,Humidity,Sea Level PressureIn,VisibilityMPH,Wind Direction,Wind SpeedMPH,Gust SpeedMPH,PrecipitationIn,Events,Conditions,WindDirDegrees,DateUTC
12:15 AM,32.5,31.8,97,30.08,5.0,Calm,Calm,-,N/A,,Clear,0,2013-02-15 05:15:00
12:35 AM,32.2,31.5,97,30.08,7.0,Calm,Calm,-,N/A,,Clear,0,2013-02-15 05:35:00
12:55 AM,30.9,29.5,94,30.08,7.0,Calm,Calm,-,N/A,,Clear,0,2013-02-15 05:55:00
1:15 AM,30.6,29.1,94,30.08,10.0,Calm,Calm,-,N/A,,Clear,0,2013-02-15 06:15:00
1:35 AM,31.1,29.5,94,30.07,7.0,Calm,Calm,-,N/A,,Clear,0,2013-02-15 06:35:00
1:55 AM,30.0,28.2,93,30.07,10.0,Calm,Calm,-,N/A,,Clear,0,2013-02-15 06:55:00
2:15 AM,29.5,28.0,94,30.07,10.0,Calm,Calm,-,N/A,,Clear,0,2013-02-15 07:15:00
2:35 AM,29.8,28.4,94,30.07,7.0,Calm,Calm,-,N/A,,Clear,0,2013-02-15 07:35:00
2:55 AM,30.2,28.4,93,30.06,10.0,Calm,Calm,-,N/A,,Clear,0,2013-02-15 07:55:00
3:35 AM,29.3,27.5,93,30.06,7.0,Calm,Calm,-,N/A,,Clear,0,2013-02-15 08:35:00
3:55 AM,29.5,28.0,94,30.06,5.0,Calm,Calm,-,N/A,,Clear,0,2013-02-15 08:55:00
4:15 AM,29.3,27.9,94,30.07,5.0,Calm,Calm,-,N/A,,Clear,0,2013-02-15 09:15:00
4:35 AM,29.3,27.9,94,30.07,10.0,Calm,Calm,-,N/A,,Clear,0,2013-02-15 09:35:00
4:55 AM,29.1,27.5,94,30.07,7.0,Calm,Calm,-,N/A,,Clear,0,2013-02-15 09:55:00
5:15 AM,28.8,27.1,94,30.07,10.0,Calm,Calm,-,N/A,,Clear,0,2013-02-15 10:15:00
5:35 AM,28.8,27.0,93,30.07,7.0,Calm,Calm,-,N/A,,Clear,0,2013-02-15 10:35:00
5:55 AM,28.9,27.1,93,30.08,7.0,Calm,Calm,-,N/A,,Clear,0,2013-02-15 10:55:00
6:15 AM,28.4,27.0,94,30.08,10.0,Calm,Calm,-,N/A,,Clear,0,2013-02-15 11:15:00
6:35 AM,28.9,27.3,94,30.09,4.0,Calm,Calm,-,N/A,,Clear,0,2013-02-15 11:35:00
7:15 AM,27.7,26.2,94,30.09,5.0,Calm,Calm,-,N/A,,Clear,0,2013-02-15 12:15:00
7:35 AM,27.5,26.1,94,30.10,7.0,Calm,Calm,-,N/A,,Clear,0,2013-02-15 12:35:00
7:55 AM,29.3,27.9,94,30.10,10.0,Calm,Calm,-,N/A,,Clear,0,2013-02-15 12:55:00
8:15 AM,32.0,30.6,94,30.10,7.0,Calm,Calm,-,N/A,,Clear,0,2013-02-15 13:15:00
8:55 AM,38.3,36.1,92,30.11,7.0,Calm,Calm,-,N/A,,Clear,0,2013-02-15 13:55:00
9:15 AM,41.5,38.5,89,30.11,10.0,Calm,Calm,-,N/A,,Clear,0,2013-02-15 14:15:00
9:35 AM,43.3,38.7,84,30.11,10.0,Calm,Calm,-,N/A,,Clear,0,2013-02-15 14:35:00
9:55 AM,45.0,37.9,76,30.10,10.0,Calm,Calm,-,N/A,,Clear,0,2013-02-15 14:55:00
10:15 AM,47.8,38.5,70,30.10,10.0,Calm,Calm,-,N/A,,Clear,0,2013-02-15 15:15:00
10:35 AM,49.8,37.8,63,30.09,10.0,Calm,Calm,-,N/A,,Clear,0,2013-02-15 15:35:00
10:55 AM,51.8,38.5,60,30.09,10.0,Calm,Calm,-,N/A,,Clear,0,2013-02-15 15:55:00
11:15 AM,54.5,37.6,53,30.08,10.0,Calm,Calm,-,N/A,,Clear,0,2013-02-15 16:15:00
11:35 AM,55.9,38.1,51,30.08,10.0,Calm,Calm,-,N/A,,Clear,0,2013-02-15 16:35:00
11:55 AM,57.7,32.9,39,30.07,10.0,Calm,Calm,-,N/A,,Clear,0,2013-02-15 16:55:00
12:15 PM,59.0,26.4,29,30.07,10.0,Calm,Calm,-,N/A,,Clear,0,2013-02-15 17:15:00
12:55 PM,60.3,27.7,29,30.04,10.0,Calm,Calm,-,N/A,,Clear,0,2013-02-15 17:55:00
1:15 PM,60.8,27.5,28,30.03,10.0,Calm,Calm,-,N/A,,Clear,0,2013-02-15 18:15:00
1:35 PM,61.3,24.4,24,30.02,10.0,WNW,4.6,-,N/A,,Clear,290,2013-02-15 18:35:00
1:55 PM,62.8,25.3,24,30.00,10.0,West,4.6,-,N/A,,Clear,280,2013-02-15 18:55:00
2:15 PM,61.9,24.4,24,29.99,10.0,SSW,3.5,-,N/A,,Clear,200,2013-02-15 19:15:00
2:35 PM,61.9,23.7,23,29.98,10.0,Calm,Calm,-,N/A,,Clear,0,2013-02-15 19:35:00
2:55 PM,63.1,25.7,24,29.98,10.0,WSW,3.5,-,N/A,,Clear,240,2013-02-15 19:55:00
3:15 PM,62.6,25.0,24,29.97,10.0,Calm,Calm,-,N/A,,Clear,0,2013-02-15 20:15:00
3:35 PM,63.3,26.4,25,29.96,10.0,SW,6.9,-,N/A,,Clear,230,2013-02-15 20:35:00
3:55 PM,62.6,24.3,23,29.96,10.0,SW,3.5,-,N/A,,Clear,230,2013-02-15 20:55:00
4:15 PM,62.6,25.0,24,29.95,10.0,Calm,Calm,-,N/A,,Clear,0,2013-02-15 21:15:00
4:35 PM,62.6,25.7,25,29.95,10.0,SSW,4.6,-,N/A,,Clear,210,2013-02-15 21:35:00
4:55 PM,61.9,25.0,25,29.95,10.0,SSW,5.8,-,N/A,,Clear,210,2013-02-15 21:55:00
5:15 PM,61.3,25.0,25,29.95,10.0,SSW,3.5,-,N/A,,Clear,210,2013-02-15 22:15:00
5:35 PM,59.9,26.8,28,29.94,10.0,SSW,3.5,-,N/A,,Clear,200,2013-02-15 22:35:00
5:55 PM,58.1,27.0,30,29.93,10.0,South,3.5,-,N/A,,Clear,190,2013-02-15 22:55:00
6:15 PM,54.1,30.9,41,29.94,10.0,Calm,Calm,-,N/A,,Clear,0,2013-02-15 23:15:00
6:35 PM,50.5,32.7,51,29.95,10.0,Calm,Calm,-,N/A,,Clear,0,2013-02-15 23:35:00
6:55 PM,48.2,34.0,58,29.95,10.0,Calm,Calm,-,N/A,,Clear,0,2013-02-15 23:55:00
7:15 PM,46.9,37.4,69,29.96,10.0,Calm,Calm,-,N/A,,Clear,0,2013-02-16 00:15:00
7:35 PM,45.1,36.0,70,29.96,10.0,Calm,Calm,-,N/A,,Clear,0,2013-02-16 00:35:00
7:55 PM,43.7,36.7,76,29.96,10.0,Calm,Calm,-,N/A,,Clear,0,2013-02-16 00:55:00
8:15 PM,43.2,37.4,80,29.96,10.0,Calm,Calm,-,N/A,,Clear,0,2013-02-16 01:15:00
8:35 PM,42.3,36.7,81,29.95,10.0,Calm,Calm,-,N/A,,Clear,0,2013-02-16 01:35:00
8:55 PM,41.4,35.8,81,29.95,10.0,Calm,Calm,-,N/A,,Clear,0,2013-02-16 01:55:00
9:15 PM,41.2,36.5,83,29.95,10.0,Calm,Calm,-,N/A,,Clear,0,2013-02-16 02:15:00
9:35 PM,40.8,35.6,82,29.95,10.0,Calm,Calm,-,N/A,,Clear,0,2013-02-16 02:35:00
9:55 PM,39.4,35.6,86,29.95,10.0,Calm,Calm,-,N/A,,Clear,0,2013-02-16 02:55:00
10:15 PM,38.5,35.1,87,29.95,10.0,Calm,Calm,-,N/A,,Clear,0,2013-02-16 03:15:00
10:35 PM,38.3,35.2,89,29.95,10.0,Calm,Calm,-,N/A,,Clear,0,2013-02-16 03:35:00
10:55 PM,36.7,33.1,87,29.94,10.0,Calm,Calm,-,N/A,,Clear,0,2013-02-16 03:55:00
11:15 PM,40.8,34.9,79,29.95,10.0,West,4.6,20.7,N/A,,Clear,280,2013-02-16 04:15:00
11:35 PM,41.2,33.6,74,29.95,10.0,Calm,Calm,-,N/A,,Clear,0,2013-02-16 04:35:00
11:55 PM,38.5,32.9,80,29.95,10.0,Calm,Calm,-,N/A,,Clear,0,2013-02-16 04:55:00